Weather in Voru

Estonia     57°50′30″N   27°00′54″E
В апреле 2022 года жителям России запретили посещать сайт meteo.paraplan.net по решению Генеральной прокуратуры. Аудитория сайта уменьшилась в 10 раз. Владельцы сайта не видят смысла в поддержке погодного сервера в таких условиях. Сайт будет закрыт в октябре.
temp.,
°C
wind,
m/s
gust,
m/s
humid.,
%
clouds,
%
prec.,
mm/h
press.,
hPa
HPBL,
m
4 october, tue
tue400:00+5n71396100 5.9 9981110
03:00+6n61195100 6.4 998968
06:00+6nnw51097100 1.7 9981060
09:00+6nnw41097100 2.8 999709
12:00+7nnw3697100 0.3 1001551
15:00+6nw4897100 1.3 1003666
18:00+7nnw499692 0.4 1006712
21:00+7nw5119492 1.1 1008746
5 october, wed
wed500:00+6nw4109395 0.1 1010627
03:00+6wnw399577 0.1 1011442
06:00+3w2897100 0.0 1012206
09:00+5wsw2693100 0.0 1013179
12:00+8ssw2698100 0.7 1013234
15:00+9ssw3995100 1.1 1013469
18:00+10s399898 0.1 1012292
21:00+11ssw31098100 0.3 1012404
6 october, thu
thu600:00+11sw3998100 0.1 1013462
03:00+11ssw4109893 0.1 1012436
06:00+9ssw4119726 0.0 1012354
09:00+10ssw413930 0.0 1011395
12:00+14sw614801 0.0 1010658
15:00+17sw61370100 0.0 10091269
18:00+13w71489100 2.3 10101132
21:00+11wsw7148877 2.5 10131195
7 october, fri
fri700:00+11wsw71585100 0.1 10151277
03:00+11wsw71479100 0.1 10161312
06:00+11wsw71577100 0.1 10161477
09:00+11w7147683 0.1 10171428
12:00+12w713725 0.1 10191347
15:00+14wsw612625 0.2 10191411
18:00+12wsw41072100 0.0 1019859
21:00+10sw3128497 0.0 1019442
8 october, sat
sat800:00+10sw5138798 0.0 1019611
03:00+9ssw51485100 0.0 1017595
06:00+8ssw51482100 0.0 1015551
09:00+9ssw51577100 0.0 1013622
12:00+12ssw61468100 0.0 1012832
15:00+14ssw61267100 0.0 10101167
18:00+12sw51169100 0.0 10091032
21:00+10sw41191100 1.5 1010714